Regional Weather Roundup
Issued by NWS

Home | Current Version | Previous Version | Graphics & Text | Print | Product List | Glossary On
Versions: 1 2 3 4 5 6 7 8 9 10 11 12 13 14 15 16 17 18 19 20 21 22 23 24 25 26 27 28 29 30 31 32 33 34 35 36 37 38 39 40 41 42 43 44 45 46 47 48 49 50
000
ASUS43 KFSD 270010
RWRSD

WEATHER ROUNDUP FOR SOUTH DAKOTA
NATIONAL WEATHER SERVICE SIOUX FALLS SD
700 PM CDT MON JUN 26 2017

NOTE: "FAIR" INDICATES FEW OR NO CLOUDS BELOW 12,000 FEET WITH NO
SIGNIFICANT WEATHER AND/OR OBSTRUCTIONS TO VISIBILITY.


SDZ001>005-009-010-012>017-270100-
NORTHWEST AND NORTH CENTRAL SOUTH DAKOTA

CITY           SKY/WX    TMP DP  RH WIND       PRES   REMARKS
BUFFALO          N/A     80  37  21 SE20      29.96F
FAITH            N/A     73  41  31 SE15      30.07F
MOBRIDGE       SUNNY     76  35  22 S8        30.07F
$$

SDZ012>016-024>037-041>051-057-063-072>074-270100-
SOUTHWEST AND SOUTH CENTRAL SOUTH DAKOTA

CITY           SKY/WX    TMP DP  RH WIND       PRES   REMARKS
RAPID CTY ARPT SUNNY     78  39  24 S13G22    30.05F
PIERRE         SUNNY     73  41  31 SE13      30.09F
CUSTER         SUNNY     71  36  27 VRB7      30.17F
ELLSWORTH AFB  MOSUNNY   80  39  22 S14       30.04F
PHILIP         CLOUDY    76  39  26 SE12      30.07F
PINE RIDGE     SUNNY     78  40  25 SE10G21   30.09F
SPEARFISH      FAIR      79  45  29 E15       30.05F
WINNER         FAIR      77  37  23 E9        30.12F
$$

SDZ004>011-016>023-039-040-270100-
NORTHEAST SOUTH DAKOTA

CITY           SKY/WX    TMP DP  RH WIND       PRES   REMARKS
ABERDEEN       SUNNY     71  37  28 S6        30.13F
WATERTOWN      SUNNY     68  38  33 NE5       30.14F
BROOKINGS      SUNNY     68  38  33 NW3       30.15F
SISSETON         N/A     73  38  27 NE3       30.12F
$$

SDZ017-020-022-023-036>040-048>070-270100-
SOUTHEAST SOUTH DAKOTA

CITY           SKY/WX    TMP DP  RH WIND       PRES   REMARKS
SIOUX FALLS    SUNNY     70  46  42 N7        30.14F
HURON          SUNNY     71  38  29 CALM      30.13F
CHAMBERLAIN    SUNNY     75  34  22 NE5       30.12F
MITCHELL       SUNNY     73  37  27 E7        30.13F
YANKTON        SUNNY     72  39  30 CALM      30.14F
$$

ABBREVIATIONS USED IN REMARKS
   TC - TEMPERATURE IN CELSIUS
  WCI - WIND CHILL INDEX
   HX - HEAT INDEX
  VSB - VISIBILITY




USA.gov is the U.S. government's official web portal to all federal, state and local government web resources and services.